VLG27LP LEGR-LEVC

Flight info

Callsign VLG27LP
Flight time N/A
Altitude 34000
Route VIBAS M985 ASTRO
Aircraft A319/M-SDE3FGHIRWY/LB1

Departure

Time 2026-04-12 23:19
Airport F.G.L. Airport Granada-Jaén Airport (LEGR)

Arrival

Time N/A
Airport Valencia Airport (LEVC)
Time Latitude Longitude Altitude Speed Heading
2026-04-12 23:15 37.18711 -3.77099 1865 ft 16 kts 89°
2026-04-12 23:15 37.18713 -3.76959 1866 ft 16 kts 89°
2026-04-12 23:15 37.18714 -3.76810 1864 ft 18 kts 91°
2026-04-12 23:16 37.18716 -3.76643 1861 ft 20 kts 89°
2026-04-12 23:16 37.18717 -3.76463 1860 ft 21 kts 89°
2026-04-12 23:16 37.18718 -3.76274 1856 ft 22 kts 89°
2026-04-12 23:16 37.18739 -3.76147 1852 ft 11 kts 29°
2026-04-12 23:17 37.18781 -3.76141 1851 ft 2 kts 359°
2026-04-12 23:17 37.18798 -3.76140 1851 ft 3 kts
2026-04-12 23:17 37.18842 -3.76139 1851 ft 8 kts
2026-04-12 23:17 37.18885 -3.76166 1851 ft 7 kts 272°
2026-04-12 23:18 37.18885 -3.76170 1851 ft 0 kts 270°
2026-04-12 23:18 37.18886 -3.76231 1852 ft 34 kts 270°
2026-04-12 23:18 37.18883 -3.76851 1865 ft 107 kts 269°
2026-04-12 23:18 37.18872 -3.78045 1897 ft 160 kts 271°
2026-04-12 23:19 37.18836 -3.79429 2559 ft 158 kts 271°
2026-04-12 23:19 37.18816 -3.80809 3290 ft 158 kts 271°
2026-04-12 23:19 37.18778 -3.82216 3886 ft 170 kts 271°
2026-04-12 23:19 37.18736 -3.83793 4238 ft 192 kts 272°
2026-04-12 23:20 37.18689 -3.85566 4595 ft 214 kts 272°
2026-04-12 23:20 37.18638 -3.87521 5048 ft 234 kts 272°
2026-04-12 23:20 37.18582 -3.89604 5861 ft 243 kts 271°
2026-04-12 23:20 37.18523 -3.91749 6767 ft 249 kts 271°
2026-04-12 23:21 37.18462 -3.93932 7675 ft 253 kts 271°
2026-04-12 23:21 37.18402 -3.96155 8616 ft 257 kts 271°
2026-04-12 23:21 37.18342 -3.98409 9561 ft 261 kts 271°
2026-04-12 23:21 37.18439 -4.00684 10429 ft 262 kts 287°
2026-04-12 23:22 37.19196 -4.02738 11274 ft 261 kts 309°
2026-04-12 23:22 37.20521 -4.04270 12151 ft 261 kts 330°
2026-04-12 23:22 37.22215 -4.05080 13027 ft 264 kts 350°
2026-04-12 23:22 37.24056 -4.05021 13884 ft 269 kts 11°
2026-04-12 23:23 37.25802 -4.04046 14412 ft 289 kts 33°
2026-04-12 23:23 37.27178 -4.02055 14661 ft 320 kts 60°
2026-04-12 23:23 37.27811 -3.99261 14911 ft 347 kts 78°
2026-04-12 23:23 37.28460 -3.96321 15407 ft 352 kts 60°
2026-04-12 23:24 37.29857 -3.93808 16078 ft 352 kts 45°
2026-04-12 23:24 37.31589 -3.91637 16809 ft 353 kts 39°
2026-04-12 23:24 37.33414 -3.89557 17535 ft 357 kts 39°
2026-04-12 23:24 37.35234 -3.87399 18254 ft 361 kts 41°
2026-04-12 23:25 37.36977 -3.85150 18847 ft 366 kts 44°
2026-04-12 23:25 37.38709 -3.82716 19461 ft 371 kts 46°
2026-04-12 23:25 37.40358 -3.80258 20087 ft 374 kts 47°
2026-04-12 23:25 37.42015 -3.77714 20695 ft 378 kts 47°
2026-04-12 23:26 37.43706 -3.75098 21308 ft 382 kts 48°
2026-04-12 23:26 37.45374 -3.72530 21899 ft 386 kts 47°
2026-04-12 23:26 37.47087 -3.69910 22512 ft 389 kts 47°
2026-04-12 23:26 37.48826 -3.67272 23117 ft 393 kts 47°
2026-04-12 23:27 37.50583 -3.64618 23676 ft 397 kts 47°
2026-04-12 23:27 37.52358 -3.61938 24151 ft 400 kts 47°
2026-04-12 23:27 37.54151 -3.59227 24634 ft 404 kts 48°
2026-04-12 23:27 37.55952 -3.56495 25092 ft 407 kts 48°
2026-04-12 23:28 37.57766 -3.53742 25541 ft 410 kts 48°
2026-04-12 23:28 37.59597 -3.50959 25986 ft 414 kts 48°
2026-04-12 23:28 37.61439 -3.48155 26435 ft 417 kts 48°
2026-04-12 23:28 37.63296 -3.45325 26877 ft 420 kts 49°
2026-04-12 23:29 37.65168 -3.42472 27290 ft 424 kts 49°
2026-04-12 23:29 37.67056 -3.39597 27710 ft 427 kts 49°
2026-04-12 23:29 37.68961 -3.36698 28144 ft 431 kts 49°
2026-04-12 23:29 37.70881 -3.33774 28562 ft 434 kts 49°
2026-04-12 23:30 37.72812 -3.30823 28959 ft 438 kts 49°
2026-04-12 23:30 37.74755 -3.27846 29345 ft 441 kts 49°
2026-04-12 23:30 37.76716 -3.24835 29732 ft 445 kts 49°
2026-04-12 23:30 37.78687 -3.21805 29946 ft 448 kts 49°
2026-04-12 23:31 37.82653 -3.15714 29972 ft 449 kts 50°
2026-04-12 23:31 37.86650 -3.09597 29967 ft 451 kts 50°
2026-04-12 23:32 37.90640 -3.03459 29970 ft 452 kts 50°
2026-04-12 23:32 37.94631 -2.97300 29962 ft 452 kts 51°
2026-04-12 23:33 37.98591 -2.91170 29960 ft 452 kts 51°